OBJECT Z, 67386

Orbit data source: Space-Track

You're viewing an uncataloged RSO

Recently launched and/or uncataloged RSOs may have evolving metadata. Metadata may include the following, but is not limited to: Owner, Manufacturer, Bus, Motor, and Mission.

OBJECT Z, 67386 is a satellite in SSO that was launched on Sun, 11 Jan 2026 UTC via an FALCON 9 launch vehicle from the Air Force Western Test Range (AFWTR). Unknown objects in Earth's orbit typically refer to objects detected orbiting the Earth but have not yet been identified or cataloged. These objects could be anything from previously untracked satellites, spent rocket stages, debris from satellite collisions, or even natural meteoroids temporarily captured by Earth's gravity.

Loading next visibility...
Identifier
67386, 2026-004Z
Orbit
SSO
Country
Flag of TBDTBD
Related business
Manufacturer
Blue Canyon
Mission
Operational Amateur Astronomy
Bus & Motor
CUBESAT 6U, Unknown motor
Mass
~12 kg wet, ~12 kg dry
Launch date (UTC)
2026-01-11 (8 months ago)
Launch vehicle
FALCON 9
Launch site
Air Force Western Test Range (AFWTR)
Object type
Unknown
Shape & HBR
Box + 2 Pan, 0.6 m
Radar Cross Section
0.072 m², Medium (>0.1 m² and < 1m²)

Expand to show TLE details & history
Last TLE update: 1 day ago

TLE from 1 day ago
0 OBJECT Z
1 67386U 26004Z   26263.52834441  .00000940  00000-0  10549-3 0  9997
2 67386  97.8064 260.8977 0003251 142.4360 217.7085 14.89125021 37481
Epoch: 2026-09-20T12:40Z
TLE epoch observation values (Epoch: 2026-09-20T12:40:48.957Z)
Latitude
0.00002°
Longitude
71.27248°
Altitude
605.5 km
Speed
7.556 km/s
True Right ascension
17h 23m 35s
True Declination
0° 00' 00"
Sunlit
Object was in daylight at epoch
Visualization orbit readout
Latitude
Unknown
Longitude
Unknown
Altitude
Unknown
Speed
Unknown
Apparent Right ascension
Unknown
Apparent Declination
Unknown
Sunlit
N/A
Visualization observer readout
Local Sidereal Time
11:31:53
Azimuth
Unknown
Elevation
Unknown
Doppler factor
Unknown
Orbital elements
Apogee altitude
599.96 km
Perigee altitude
595.425 km
Semi-major axis
6,975.83 km
Eccentricity
0.00033
Inclination
97.8064°
RAAN
260.8977°
Arg. of periapsis
142.436°
True anomaly
217.68572°
Mean anomaly
217.7085°
Eccentric anomaly
217.69711°
Mean motion
3.7252 °/min
Orbital period
96.64 mins
BSTAR
0.00010549
Loading maneuver chart data...
Computing Atmospheric mass density...
Loading historical data...
Loading historical data...
Loading historical data...
Loading historical data...
Loading historical data...
Loading historical data...
Loading historical data...

Documentation

Showing up to 5 results
|